Location: Nemiskam
(49.4820°N, 111.2775°W)
Time: 09:37:50
(UTC+00:00)

Envisat - Pass Details

Date: 06 December 2022
Orbit: 763 x 765 km, 98.2° (Epoch: 28 January)

Event Time Altitude Azimuth Distance (km) Brightness Sun altitude
Rises 10:48:17 0° 22° (NNE) 3,245 6.6 -40.7°
Reaches altitude 10° 10:50:55 10° 35° (NE) 2,314 5.9 -40.3°
Enters shadow 10:51:42 14° 40° (NE) 2,065 5.6 -40.1°
